• MPC Preparation (Info)

  • MPEC 2014-W111: 2014 WV202

    The following Minor Planet Electronic Circular may be linked-to from your own Web pages, but must not otherwise be redistributed electronically.

    A form allowing access to any MPEC is at the bottom of this page.


    Read MPEC 2014-W110 Read MPEC 2014-W112


    M.P.E.C. 2014-W111                               Issued 2014 Nov. 26, 16:00 UT
    
         The Minor Planet Electronic Circulars contain information on unusual
             minor planets and routine data on comets.  They are published
       on behalf of Commission 20 of the International Astronomical Union by the
              Minor Planet Center, Smithsonian Astrophysical Observatory,
                              Cambridge, MA 02138, U.S.A.
    
                 Prepared using the Tamkin Foundation Computer Network
    
                                  MPC@CFA.HARVARD.EDU
                URL https://www.minorplanetcenter.net/    ISSN 1523-6714
    
                                      2014 WV202
    
    Observations:
         K14WK2V* C2014 11 24.35533 03 49 20.930-00 10 22.19         20.5 wLEW111F51
         K14WK2V  C2014 11 24.37037 03 49 15.964-00 07 22.74         20.4 wLEW111F51
         K14WK2V  C2014 11 24.38551 03 49 10.937-00 04 21.99         20.2 wLEW111F51
         K14WK2V  C2014 11 24.40079 03 49 05.880-00 01 19.91         20.0 wLEW111F51
         K14WK2V _C2014 11 25.48066803 43 43.509+03 31 03.67         19.5 RtEW111568
         K14WK2V KC2014 11 26.28070 03 39 54.39 +06 04 36.3          19.8 RoEW111291
         K14WK2V KC2014 11 26.28116 03 39 54.24 +06 04 41.8          19.7 RoEW111291
         K14WK2V KC2014 11 26.28162 03 39 54.10 +06 04 46.8          19.6 RoEW111291
    
    Observer details:
    291 LPL/Spacewatch II.  Observer A. F. Tubbiolo.  1.8-m f/2.7 reflector + CCD.
    568 Mauna Kea.  Observers R. J. Wainscoat, D. Woodworth.  Measurers M. Micheli,
        R. J. Wainscoat.  3.6-m Canada-France-Hawaii Telescope + CCD.
    F51 Pan-STARRS 1, Haleakala.  Observers B. Gibson, T. Goggia, N. Primak,
        A. Schultz, M. Willman.  Measurers B. Bolin, K. Chambers, S. Chastel,
        L. Denneau, H. Flewelling, M. Huber, E. Magnier, E. Schunova, R. Wainscoat,
        C. Waters, P. Veres.  1.8-m Ritchey-Chretien + CCD.
    
    Orbital elements:
    2014 WV202                                               Earth MOID = 0.1057 AU
    Epoch 2014 Dec. 9.0 TT = JDT 2457000.5                  MPC
    M  52.38543              (2000.0)            P               Q
    n   0.71794690     Peri.  295.71146     +0.94922648     -0.01206398
    a   1.2352110      Node    66.36290     +0.17631764     +0.84797238
    e   0.1854925      Incl.   20.06899     -0.26054016     +0.52990311
    P   1.37           H   23.8           G   0.15           U   7
    Residuals in seconds of arc
    141124 F51  0.0   0.2-    141124 F51  0.0   0.1+    141126 291  0.1-  0.2+
    141124 F51  0.1+  0.1-    141125 568  0.1+  0.1-    141126 291  0.0   0.1-
    141124 F51  0.1-  0.2+    141126 291  0.0   0.1-
    
    Ephemeris:
    2014 WV202               a,e,i = 1.24, 0.19, 20                  q = 1.0061
    Date    TT    R. A. (2000) Decl.     Delta      r     Elong.  Phase     V
    2014 10 27    06 06 09.4 -56 04 25   0.1952  1.0296    95.0    74.1    22.9
    ...
    2014 11 11    04 59 46.5 -38 21 03   0.1292  1.0570   118.0    55.8    21.5
    ...
    2014 11 19    04 17 14.6 -17 48 25   0.1079  1.0750   141.5    34.9    20.6
    ...
    2014 11 25    03 46 07.2 +01 57 23   0.1077  1.0896   160.9    17.2    20.1
    2014 11 26    03 41 15.2 +05 11 30   0.1092  1.0921   163.3    15.1    20.0
    2014 11 27    03 36 30.8 +08 19 59   0.1112  1.0947   165.0    13.5    20.0
    ...
    2014 12 03    03 11 14.8 +24 19 15   0.1312  1.1104   160.5    17.3    20.5
    ...
    2014 12 11    02 47 13.7 +37 43 08   0.1730  1.1323   146.0    29.1    21.5
    ...
    2014 12 26    02 30 49.1 +48 58 01   0.2732  1.1753   129.2    40.5    22.9
    
    A. U. Tomatic                (C) Copyright 2014 MPC           M.P.E.C. 2014-W111
    

    Read MPEC 2014-W110 Read MPEC 2014-W112


    MPEC number:

    Enter an MPEC number in one of the following forms:

    • 1997-B01 (the full form)
    • J97B01 (the packed version of the full form)
    • B01 (the abbreviated form)